Skip Navigation Links
NOAA logo - Click to go to the NOAA homepage
NOAA's National Weather Service
Alaska Aviation Weather Unit
  NWS logo - Click to go to the NWS homepage
Left Navbar Graphic     17 AKDT = 01 GMT

   
NOAA is celebrating 200 years of science, service, and stewardship. Visit the NOAA 200th celebration Web site to learn more.
USA.gov is the U.S. Government's official Web portal to all Federal, state and local government Web resources and services.
Facebook
NWS on Facebook

Important Change Regarding the AAWU Web Presence

 

Over the last several months, the AAWU has been working to navigate its webpages to a nationally supported server. Security, as well as other needs, have necessitated the change.  We have been given an extension for the site changeover while we diligently work at addressing feedback received. As of July 14, 2017, aawu.arh.noaa.gov will be discontinued. The new AAWU web address is weather.gov/aawu. It is now live and will run in-parallel with the old site until it is discontinued on July 14, 2017. Please continue to send any feedback or questions regarding the new webpages to nws.ar.aawu.webauthors@noaa.gov.  Thank you for your patience during this time of transition.
AAWU Home :: Display TAF Add Bookmark
TAF PAOM 172339Z 1800/1824  34007KT P6SM SCT025 SCT080
     FM181800 32004KT P6SM VCSH OVC050=

2998
FTAK31 PAFA 172339
TAFAOT
TAF
METAR PAOM 171953Z 34008KT 10SM OVC025 M01/M03 A2953=

METAR PAOM 172053Z 34006KT 10SM OVC025 M01/M03 A2953=

PAOM 172132Z 36004KT 10SM SCT025 00/M03 A2953=

SPECI PAOM 172132Z 36004KT 10SM SCT025 00/M03 A2953 RMK AO2
     T00001033=

METAR PAOM 172153Z 35010KT 10SM CLR 01/M04 A2954=

METAR PAOM 172253Z 02003KT 10SM SCT030 02/M04 A2954=

METAR PAOM 172353Z 00000KT 10SM FEW030 02/M05 A2953=

METAR PAOM 180053Z 00000KT 10SM FEW030 02/M03 A2954=


NOAA's National Weather Service
Alaska Aviation Weather Unit
6930 Sand Lake Road
Anchorage, AK 99502-1845
Disclaimer
Credits
Glossary
Privacy Policy
About Us
Career Opportunities
Contact AAWU Internet Services Site last modified: April, 17th 2012